Location: *
(46.3500°N, 10.9000°E)
Time: 22:40:23
(UTC+00:00)

Explorer 7 - Pass Details

Date: 25 April 2021
Orbit: 484 x 677 km, 50.3° (Epoch: 05 May)

Event Time Altitude Azimuth Distance (km) Brightness Sun altitude
Rises 15:56:58 0° 192° (SSW) 2,548 10.4 23.0°
Reaches altitude 10° 15:59:55 10° 166° (SSE) 1,693 9.3 22.5°
Maximum altitude 16:01:59 14° 133° (SE) 1,471 8.7 22.1°
Drops below altitude 10° 16:04:06 10° 100° (E) 1,740 8.9 21.7°
Sets 16:07:12 0° 76° (ENE) 2,673 9.7 21.2°
